• In Hungary
  • List of Countries
  • For 7 days
  • Water Temperature
  • Satellite Maps
  • Weather Map
  • News
  • Weather Widgets
  • user-avatar
    Login

    Hourly Weather Karimunjawa

    Today, 18 June, Monday

    Time Temperature Precipitation Wind Pressure Humidity
    00:00 +26°C° 0 mm 2 mps 754 mmHg 83%
    01:00 +26°C° 0 mm 2 mps 754 mmHg 85%
    02:00 +26°C° 0 mm 2 mps 754 mmHg 85%
    03:00 +26°C° 0 mm 2 mps 754 mmHg 86%
    04:00 +26°C° 0 mm 2 mps 754 mmHg 86%
    05:00 +26°C° 0 mm 2 mps 754 mmHg 84%
    06:00 +27°C° 0 mm 2 mps 754 mmHg 82%
    07:00 +28°C° 0 mm 2 mps 754 mmHg 77%
    08:00 +30°C° 0 mm 3 mps 754 mmHg 68%
    09:00 +31°C° 0 mm 3 mps 754 mmHg 59%
    10:00 +34°C° 0 mm 3 mps 754 mmHg 50%
    11:00 +35°C° 0 mm 4 mps 754 mmHg 45%
    12:00 +36°C° 0 mm 4 mps 754 mmHg 40%
    13:00 +36°C° 0 mm 4 mps 753 mmHg 35%
    14:00 +36°C° 0 mm 4 mps 753 mmHg 39%
    15:00 +35°C° 0 mm 4 mps 753 mmHg 44%
    16:00 +34°C° 0 mm 4 mps 753 mmHg 48%
    17:00 +31°C° 0 mm 3 mps 753 mmHg 58%
    18:00 +29°C° 0 mm 2 mps 753 mmHg 68%
    19:00 +27°C° 0 mm 2 mps 753 mmHg 78%
    20:00 +27°C° 0 mm 2 mps 754 mmHg 79%
    21:00 +26°C° 0 mm 2 mps 754 mmHg 80%
    22:00 +26°C° 0 mm 2 mps 755 mmHg 81%
    23:00 +26°C° 0 mm 2 mps 755 mmHg 81%

    Tomorrow, 19 June, Tuesday

    Time Temperature Precipitation Wind Pressure Humidity
    00:00 +26°C° 0 mm 2 mps 755 mmHg 82%
    01:00 +26°C° 0 mm 2 mps 755 mmHg 82%
    02:00 +25°C° 0 mm 2 mps 754 mmHg 82%
    03:00 +25°C° 0 mm 2 mps 754 mmHg 82%
    04:00 +25°C° 0 mm 2 mps 754 mmHg 82%
    05:00 +26°C° 0 mm 2 mps 754 mmHg 80%
    06:00 +26°C° 0 mm 2 mps 755 mmHg 79%
    07:00 +26°C° 0 mm 2 mps 755 mmHg 77%
    08:00 +29°C° 0 mm 3 mps 755 mmHg 68%
    09:00 +31°C° 0 mm 3 mps 755 mmHg 59%
    10:00 +35°C° 0 mm 3 mps 755 mmHg 50%
    11:00 +36°C° 0 mm 3 mps 755 mmHg 46%
    12:00 +37°C° 0 mm 3 mps 754 mmHg 42%
    13:00 +37°C° 0 mm 3 mps 754 mmHg 38%
    14:00 +37°C° 0 mm 3 mps 753 mmHg 42%
    15:00 +36°C° 0 mm 3 mps 753 mmHg 45%
    16:00 +35°C° 0 mm 3 mps 753 mmHg 48%
    17:00 +33°C° 0 mm 3 mps 753 mmHg 58%
    18:00 +30°C° 0 mm 2 mps 754 mmHg 67%
    19:00 +28°C° 0 mm 2 mps 754 mmHg 76%
    20:00 +28°C° 0 mm 2 mps 755 mmHg 77%
    21:00 +28°C° 0 mm 3 mps 755 mmHg 79%
    22:00 +27°C° 0 mm 3 mps 756 mmHg 80%
    23:00 +27°C° 0 mm 3 mps 756 mmHg 80%

    Day after tomorrow, 20 June, Wednesday

    Time Temperature Precipitation Wind Pressure Humidity
    00:00 +27°C° 0 mm 3 mps 755 mmHg 80%
    01:00 +27°C° 0 mm 3 mps 755 mmHg 81%
    02:00 +26°C° 0 mm 2 mps 755 mmHg 81%
    03:00 +26°C° 0 mm 2 mps 755 mmHg 82%
    04:00 +26°C° 0 mm 2 mps 754 mmHg 82%
    05:00 +27°C° 0 mm 2 mps 754 mmHg 81%
    06:00 +27°C° 0 mm 2 mps 755 mmHg 79%
    07:00 +28°C° 0 mm 2 mps 755 mmHg 77%
    08:00 +30°C° 0 mm 2 mps 755 mmHg 68%
    09:00 +32°C° 0 mm 2 mps 755 mmHg 60%
    10:00 +35°C° 0 mm 2 mps 756 mmHg 51%
    11:00 +36°C° 0 mm 2 mps 755 mmHg 49%
    12:00 +36°C° 0 mm 3 mps 754 mmHg 48%
    13:00 +37°C° 0 mm 3 mps 754 mmHg 47%
    14:00 +36°C° 0.4 mm 3 mps 754 mmHg 51%
    15:00 +35°C° 0.4 mm 3 mps 753 mmHg 56%
    16:00 +34°C° 0.4 mm 3 mps 753 mmHg 60%
    17:00 +31°C° 0.3 mm 3 mps 754 mmHg 67%
    18:00 +30°C° 0.3 mm 2 mps 754 mmHg 74%
    19:00 +28°C° 0.3 mm 2 mps 755 mmHg 82%
    20:00 +28°C° 0.1 mm 2 mps 755 mmHg 82%
    21:00 +28°C° 0.1 mm 2 mps 756 mmHg 83%
    22:00 +27°C° 0.1 mm 2 mps 756 mmHg 84%
    23:00 +27°C° 0.2 mm 2 mps 756 mmHg 84%

    21 June, Thursday

    Time Temperature Precipitation Wind Pressure Humidity
    00:00 +27°C° 0.2 mm 2 mps 756 mmHg 85%
    01:00 +27°C° 0.2 mm 2 mps 755 mmHg 85%
    02:00 +27°C° 0.3 mm 2 mps 755 mmHg 85%
    03:00 +27°C° 0.3 mm 2 mps 755 mmHg 85%
    04:00 +27°C° 0.3 mm 1 mps 754 mmHg 86%
    05:00 +27°C° 0.2 mm 1 mps 755 mmHg 85%
    06:00 +27°C° 0.2 mm 1 mps 755 mmHg 85%
    07:00 +27°C° 0.2 mm 1 mps 756 mmHg 85%
    08:00 +28°C° 0.6 mm 1 mps 756 mmHg 81%
    09:00 +30°C° 0.6 mm 1 mps 756 mmHg 76%
    10:00 +31°C° 0.6 mm 1 mps 756 mmHg 72%
    11:00 +31°C° 0.8 mm 1 mps 756 mmHg 70%
    12:00 +31°C° 0.8 mm 1 mps 755 mmHg 68%
    13:00 +32°C° 0.8 mm 2 mps 755 mmHg 66%
    14:00 +31°C° 0.8 mm 2 mps 754 mmHg 69%
    15:00 +31°C° 0.8 mm 1 mps 754 mmHg 73%
    16:00 +30°C° 0.8 mm 1 mps 754 mmHg 76%
    17:00 +29°C° 0.3 mm 1 mps 754 mmHg 80%
    18:00 +28°C° 0.3 mm 1 mps 755 mmHg 83%
    19:00 +27°C° 0.3 mm 1 mps 755 mmHg 87%
    20:00 +27°C° 0 mm 1 mps 755 mmHg 87%
    21:00 +27°C° 0 mm 1 mps 756 mmHg 88%
    22:00 +27°C° 0 mm 2 mps 756 mmHg 88%
    23:00 +26°C° 0 mm 2 mps 755 mmHg 87%

    22 June, Friday

    Time Temperature Precipitation Wind Pressure Humidity
    00:00 +26°C° 0 mm 2 mps 755 mmHg 87%
    01:00 +26°C° 0 mm 2 mps 755 mmHg 86%
    02:00 +26°C° 0 mm 2 mps 754 mmHg 85%
    03:00 +26°C° 0 mm 2 mps 754 mmHg 85%
    04:00 +26°C° 0 mm 2 mps 754 mmHg 84%
    05:00 +27°C° 0 mm 2 mps 754 mmHg 84%
    06:00 +27°C° 0 mm 2 mps 755 mmHg 83%
    07:00 +27°C° 0 mm 2 mps 755 mmHg 82%
    08:00 +29°C° 0.1 mm 2 mps 755 mmHg 75%
    09:00 +31°C° 0.1 mm 2 mps 756 mmHg 68%
    10:00 +32°C° 0.1 mm 2 mps 756 mmHg 61%
    11:00 +34°C° 0.4 mm 2 mps 755 mmHg 61%
    12:00 +34°C° 0.4 mm 2 mps 755 mmHg 60%
    13:00 +34°C° 0.4 mm 3 mps 754 mmHg 60%
    14:00 +32°C° 0.6 mm 2 mps 754 mmHg 65%
    15:00 +31°C° 0.6 mm 2 mps 754 mmHg 70%
    16:00 +30°C° 0.6 mm 2 mps 754 mmHg 74%
    17:00 +29°C° 0.4 mm 2 mps 754 mmHg 79%
    18:00 +29°C° 0.4 mm 2 mps 755 mmHg 84%
    19:00 +28°C° 0.4 mm 1 mps 755 mmHg 89%
    20:00 +27°C° 0.8 mm 1 mps 755 mmHg 89%
    21:00 +27°C° 0.8 mm 1 mps 756 mmHg 90%
    22:00 +27°C° 0.8 mm 1 mps 756 mmHg 90%
    23:00 +27°C° 0.1 mm 1 mps 755 mmHg 91%

    23 June, Saturday

    Time Temperature Precipitation Wind Pressure Humidity
    00:00 +27°C° 0.1 mm 1 mps 755 mmHg 91%
    01:00 +27°C° 0.1 mm 1 mps 755 mmHg 91%
    02:00 +26°C° 0.1 mm 1 mps 754 mmHg 91%
    03:00 +26°C° 0.1 mm 1 mps 754 mmHg 91%
    04:00 +26°C° 0.1 mm 1 mps 754 mmHg 91%
    05:00 +26°C° 0 mm 1 mps 754 mmHg 90%
    06:00 +27°C° 0 mm 1 mps 755 mmHg 88%
    07:00 +27°C° 0 mm 1 mps 755 mmHg 87%
    08:00 +29°C° 0 mm 2 mps 755 mmHg 77%
    09:00 +31°C° 0 mm 2 mps 755 mmHg 67%
    10:00 +34°C° 0 mm 2 mps 755 mmHg 57%
    11:00 +34°C° 0.1 mm 2 mps 755 mmHg 56%
    12:00 +35°C° 0.1 mm 2 mps 754 mmHg 55%
    13:00 +35°C° 0.1 mm 3 mps 754 mmHg 54%
    14:00 +34°C° 0.6 mm 3 mps 754 mmHg 59%
    15:00 +33°C° 0.6 mm 3 mps 753 mmHg 64%
    16:00 +31°C° 0.6 mm 3 mps 753 mmHg 69%
    17:00 +30°C° 2 mm 2 mps 754 mmHg 76%
    18:00 +29°C° 2 mm 2 mps 754 mmHg 82%
    19:00 +27°C° 2 mm 2 mps 755 mmHg 89%
    20:00 +27°C° 0.8 mm 2 mps 755 mmHg 89%
    21:00 +27°C° 0.8 mm 2 mps 755 mmHg 89%
    22:00 +27°C° 0.8 mm 2 mps 756 mmHg 89%
    23:00 +27°C° 0.2 mm 2 mps 755 mmHg 89%
    Show more